Powrót do katalogu

SHIJIAN 6 01A

SJ-6 01A

AktywnyNaukaSSO
NORAD 28413·PAYLOAD·🇨🇳 China

Wystrzelony Sep 8, 2004 z Taiyuan Satellite Launch Center

Loading…

Następne Przeloty (najbliższe 24 godziny)

TLE

ŚwieżeSource: Space-Track

Epoka: Sep 13, 2026, 15:51 UTC

1 28413U 04035A   26256.66047477  .00005226  00000-0  25241-3 0  9994
2 28413  97.5817 284.0498 0006060 172.5250 187.6075 15.19075605200898

Śledź SHIJIAN 6 01A w czasie rzeczywistym z AllMySat

Download on the App Store